This is the latest recevied weather packets stored in our database for station/object SHLBYV-WX. If no packets are shown the sender has not sent any weather packets the latest 10 day(s).
| Time | Temp. | Humidity | Pressure | Rain* | Wind** | Luminosity | Snow |
|---|---|---|---|---|---|---|---|
| 1777509062 | 6.67° C | 91% | 984.6 hPa | 0 mm | - | - | - |
| 1777508148 | 6.67° C | 91% | 984.6 hPa | 0 mm | - | - | - |
| 1777507278 | 7.22° C | 91% | 984.6 hPa | 0 mm | - | - | - |
| 1777506349 | 7.22° C | 88% | 983.9 hPa | 0 mm | - | - | - |
| 1777505463 | 7.78° C | 88% | 984 hPa | 0 mm | - | - | - |
| 1777504549 | 7.78° C | 88% | 984 hPa | 0 mm | - | - | - |
| 1777503672 | 7.78° C | 88% | 984 hPa | 0 mm | - | - | - |
| 1777502749 | 7.78° C | 88% | 983.5 hPa | 0 mm | - | - | - |
| 1777501862 | 7.78° C | 91% | 984.2 hPa | 0 mm | - | - | - |
| 1777500950 | 7.78° C | 91% | 984.2 hPa | 0 mm | - | - | - |
| 1777500076 | 7.78° C | 91% | 984.2 hPa | 0 mm | - | - | - |
| 1777499149 | 7.78° C | 90% | 983.5 hPa | 0.25 mm | - | - | - |
| 1777498266 | 7.78° C | 89% | 983.1 hPa | 0.25 mm | - | - | - |
| 1777497349 | 8.33° C | 89% | 983.1 hPa | 0 mm | - | - | - |
| 1777496474 | 8.33° C | 89% | 983.1 hPa | 0 mm | - | - | - |
| 1777495550 | 8.33° C | 91% | 984 hPa | 1.27 mm | - | - | - |
| 1777494666 | 8.33° C | 92% | 982.9 hPa | 0.51 mm | - | - | - |
| 1777493749 | 8.33° C | 92% | 982.9 hPa | 0.51 mm | - | - | - |
| 1777492873 | 8.89° C | 92% | 982.9 hPa | 0.51 mm | - | - | - |
| 1777491952 | 9.44° C | 90% | 982.1 hPa | 1.27 mm | - | - | - |
| 1777491067 | 9.44° C | 90% | 982.1 hPa | 1.27 mm | - | - | - |
| 1777490151 | 9.44° C | 90% | 982 hPa | 1.78 mm | - | - | - |
| 1777489274 | 9.44° C | 90% | 982 hPa | 1.78 mm | - | - | - |
| 1777488350 | 9.44° C | 88% | 982.7 hPa | 3.05 mm | - | - | - |
| 1777487472 | 9.44° C | 89% | 981.5 hPa | 3.05 mm | - | - | - |
* Rain latest hour (hover to see other rain measurements)
** Current wind speed in m/s (hover to see current wind gust speed)